Time,TemperatureF,DewpointF,PressureIn,WindDirection,WindDirectionDegrees,WindSpeedMPH,WindSpeedGustMPH,Humidity,HourlyPrecipIn,Conditions,Clouds,dailyrainin,SoftwareType,DateUTC
2013-05-18 00:05:00,72.1,64.0,30.09,North,360,0.0,0.0,75,0.00,,,0.00,weatherlink.com 1.10,2013-05-18 04:05:00,
2013-05-18 00:20:00,72.0,64.0,30.09,WNW,290,0.0,0.0,75,0.00,,,0.00,weatherlink.com 1.10,2013-05-18 04:20:00,
2013-05-18 00:35:00,71.7,63.0,30.09,WNW,290,0.0,0.0,75,0.00,,,0.00,weatherlink.com 1.10,2013-05-18 04:35:00,
2013-05-18 00:50:00,71.5,63.0,30.10,WNW,290,0.0,0.0,75,0.00,,,0.00,weatherlink.com 1.10,2013-05-18 04:50:00,
2013-05-18 01:05:00,71.1,63.0,30.09,WNW,290,0.0,0.0,76,0.00,,,0.00,weatherlink.com 1.10,2013-05-18 05:05:00,
2013-05-18 01:20:00,70.8,63.0,30.09,WNW,290,0.0,0.0,76,0.00,,,0.00,weatherlink.com 1.10,2013-05-18 05:20:00,
2013-05-18 01:35:00,70.4,63.0,30.09,WNW,290,0.0,0.0,77,0.00,,,0.00,weatherlink.com 1.10,2013-05-18 05:35:00,
2013-05-18 01:50:00,69.6,62.0,30.10,WNW,290,0.0,0.0,78,0.00,,,0.00,weatherlink.com 1.10,2013-05-18 05:50:00,
2013-05-18 02:05:00,69.0,62.0,30.10,WNW,290,0.0,0.0,79,0.00,,,0.00,weatherlink.com 1.10,2013-05-18 06:05:00,
2013-05-18 02:20:00,68.5,62.0,30.09,WNW,290,0.0,0.0,79,0.00,,,0.00,weatherlink.com 1.10,2013-05-18 06:20:00,
2013-05-18 02:35:00,68.0,61.0,30.09,North,360,0.0,0.0,79,0.00,,,0.00,weatherlink.com 1.10,2013-05-18 06:35:00,
2013-05-18 02:50:00,67.6,61.0,30.09,WNW,290,0.0,0.0,80,0.00,,,0.00,weatherlink.com 1.10,2013-05-18 06:50:00,
2013-05-18 03:05:00,67.4,61.0,30.09,WNW,290,0.0,0.0,80,0.00,,,0.00,weatherlink.com 1.10,2013-05-18 07:05:00,
2013-05-18 03:20:00,67.1,61.0,30.09,WNW,290,0.0,0.0,80,0.00,,,0.00,weatherlink.com 1.10,2013-05-18 07:20:00,
2013-05-18 03:35:00,66.7,61.0,30.09,WNW,290,0.0,0.0,81,0.00,,,0.00,weatherlink.com 1.10,2013-05-18 07:35:00,
2013-05-18 03:50:00,66.3,60.0,30.09,North,360,0.0,0.0,81,0.00,,,0.00,weatherlink.com 1.10,2013-05-18 07:50:00,
2013-05-18 04:05:00,66.0,60.0,30.10,WNW,290,0.0,0.0,81,0.00,,,0.00,weatherlink.com 1.10,2013-05-18 08:05:00,
2013-05-18 04:20:00,65.8,60.0,30.10,WNW,290,0.0,0.0,82,0.00,,,0.00,weatherlink.com 1.10,2013-05-18 08:20:00,
2013-05-18 04:35:00,65.5,60.0,30.11,WNW,290,0.0,0.0,82,0.00,,,0.00,weatherlink.com 1.10,2013-05-18 08:35:00,
2013-05-18 04:50:00,65.3,60.0,30.11,WNW,290,0.0,0.0,83,0.00,,,0.00,weatherlink.com 1.10,2013-05-18 08:50:00,
2013-05-18 05:05:00,65.1,60.0,30.11,WNW,290,0.0,0.0,83,0.00,,,0.00,weatherlink.com 1.10,2013-05-18 09:05:00,
2013-05-18 05:20:00,65.0,60.0,30.11,WNW,290,0.0,0.0,83,0.00,,,0.00,weatherlink.com 1.10,2013-05-18 09:20:00,
2013-05-18 05:35:00,64.9,60.0,30.11,North,360,0.0,0.0,84,0.00,,,0.00,weatherlink.com 1.10,2013-05-18 09:35:00,
2013-05-18 05:50:00,64.7,59.0,30.11,WNW,290,0.0,0.0,83,0.00,,,0.00,weatherlink.com 1.10,2013-05-18 09:50:00,
2013-05-18 06:05:00,64.4,60.0,30.12,WNW,290,0.0,0.0,84,0.00,,,0.00,weatherlink.com 1.10,2013-05-18 10:05:00,
2013-05-18 06:21:00,64.3,59.0,30.12,WNW,290,0.0,0.0,84,0.00,,,0.00,weatherlink.com 1.10,2013-05-18 10:21:00,
2013-05-18 06:36:00,64.3,59.0,30.13,North,360,0.0,0.0,84,0.00,,,0.00,weatherlink.com 1.10,2013-05-18 10:36:00,
2013-05-18 06:51:00,64.3,59.0,30.13,WNW,290,0.0,0.0,84,0.00,,,0.00,weatherlink.com 1.10,2013-05-18 10:51:00,
2013-05-18 07:06:00,64.3,59.0,30.13,WNW,290,0.0,0.0,84,0.00,,,0.00,weatherlink.com 1.10,2013-05-18 11:06:00,
2013-05-18 07:21:00,64.4,60.0,30.14,WNW,290,0.0,0.0,84,0.00,,,0.00,weatherlink.com 1.10,2013-05-18 11:21:00,
2013-05-18 07:36:00,64.7,60.0,30.15,WNW,290,0.0,0.0,84,0.00,,,0.00,weatherlink.com 1.10,2013-05-18 11:36:00,
2013-05-18 07:51:00,65.0,60.0,30.15,WNW,290,0.0,0.0,83,0.00,,,0.00,weatherlink.com 1.10,2013-05-18 11:51:00,
2013-05-18 08:06:00,65.5,60.0,30.16,North,360,0.0,0.0,83,0.00,,,0.00,weatherlink.com 1.10,2013-05-18 12:06:00,
2013-05-18 08:21:00,65.9,61.0,30.16,WNW,290,0.0,0.0,83,0.00,,,0.00,weatherlink.com 1.10,2013-05-18 12:21:00,
2013-05-18 08:36:00,66.3,61.0,30.15,WNW,290,0.0,0.0,83,0.00,,,0.00,weatherlink.com 1.10,2013-05-18 12:36:00,
2013-05-18 08:51:00,66.8,62.0,30.16,WNW,290,0.0,0.0,83,0.00,,,0.00,weatherlink.com 1.10,2013-05-18 12:51:00,
2013-05-18 09:06:00,67.7,62.0,30.16,WNW,290,0.0,0.0,83,0.00,,,0.00,weatherlink.com 1.10,2013-05-18 13:06:00,
2013-05-18 09:21:00,68.6,63.0,30.16,WNW,290,0.0,0.0,82,0.00,,,0.00,weatherlink.com 1.10,2013-05-18 13:21:00,
2013-05-18 09:36:00,69.5,63.0,30.16,SE,139,0.0,0.0,81,0.00,,,0.00,weatherlink.com 1.10,2013-05-18 13:36:00,
2013-05-18 09:51:00,70.2,64.0,30.16,ESE,120,0.0,0.0,80,0.00,,,0.00,weatherlink.com 1.10,2013-05-18 13:51:00,
2013-05-18 10:06:00,71.2,64.0,30.16,NE,36,0.0,0.0,79,0.00,,,0.00,weatherlink.com 1.10,2013-05-18 14:06:00,
2013-05-18 10:21:00,72.3,65.0,30.16,NNW,346,0.0,0.0,78,0.00,,,0.00,weatherlink.com 1.10,2013-05-18 14:21:00,
2013-05-18 10:36:00,73.5,66.0,30.16,North,355,0.0,0.0,76,0.00,,,0.00,weatherlink.com 1.10,2013-05-18 14:36:00,
2013-05-18 10:52:00,74.1,66.0,30.16,WNW,290,0.0,0.0,75,0.00,,,0.00,weatherlink.com 1.10,2013-05-18 14:52:00,
2013-05-18 11:06:00,74.9,67.0,30.16,WSW,256,0.0,0.0,75,0.00,,,0.00,weatherlink.com 1.10,2013-05-18 15:06:00,
2013-05-18 11:21:00,76.0,67.0,30.16,West,259,0.0,0.0,74,0.00,,,0.00,weatherlink.com 1.10,2013-05-18 15:21:00,
2013-05-18 11:36:00,76.9,68.0,30.16,SW,214,0.0,0.0,73,0.00,,,0.00,weatherlink.com 1.10,2013-05-18 15:36:00,
2013-05-18 11:51:00,77.3,68.0,30.16,SSW,213,0.0,0.0,72,0.00,,,0.00,weatherlink.com 1.10,2013-05-18 15:51:00,
2013-05-18 12:06:00,77.1,68.0,30.16,SW,214,0.0,0.0,73,0.00,,,0.00,weatherlink.com 1.10,2013-05-18 16:06:00,
2013-05-18 12:21:00,76.7,68.0,30.15,SW,214,0.0,0.0,75,0.00,,,0.00,weatherlink.com 1.10,2013-05-18 16:21:00,
2013-05-18 12:36:00,76.0,68.0,30.16,SSW,213,0.0,0.0,77,0.01,,,0.01,weatherlink.com 1.10,2013-05-18 16:36:00,
2013-05-18 12:51:00,74.2,68.0,30.16,SW,215,0.0,0.0,80,0.10,,,0.10,weatherlink.com 1.10,2013-05-18 16:51:00,
2013-05-18 13:06:00,72.4,67.0,30.15,SW,214,0.0,0.0,83,0.13,,,0.13,weatherlink.com 1.10,2013-05-18 17:06:00,
2013-05-18 13:21:00,71.6,67.0,30.15,SW,214,0.0,0.0,85,0.14,,,0.14,weatherlink.com 1.10,2013-05-18 17:21:00,
2013-05-18 13:36:00,71.3,67.0,30.16,SSW,213,0.0,0.0,86,0.15,,,0.16,weatherlink.com 1.10,2013-05-18 17:36:00,
2013-05-18 13:51:00,71.0,67.0,30.16,SW,215,0.0,0.0,87,0.06,,,0.16,weatherlink.com 1.10,2013-05-18 17:51:00,
2013-05-18 14:06:00,71.1,67.0,30.15,SW,214,0.0,0.0,87,0.03,,,0.16,weatherlink.com 1.10,2013-05-18 18:06:00,
2013-05-18 14:21:00,71.0,67.0,30.15,SW,214,0.0,0.0,87,0.01,,,0.16,weatherlink.com 1.10,2013-05-18 18:21:00,
2013-05-18 14:36:00,71.2,68.0,30.15,SSW,213,0.0,0.0,88,0.00,,,0.16,weatherlink.com 1.10,2013-05-18 18:36:00,
2013-05-18 14:51:00,71.5,68.0,30.14,SW,214,0.0,0.0,88,0.00,,,0.16,weatherlink.com 1.10,2013-05-18 18:51:00,
2013-05-18 15:06:00,72.0,68.0,30.14,SW,215,0.0,0.0,88,0.00,,,0.16,weatherlink.com 1.10,2013-05-18 19:06:00,
2013-05-18 15:21:00,72.2,68.0,30.14,ESE,117,0.0,0.0,87,0.00,,,0.16,weatherlink.com 1.10,2013-05-18 19:21:00,
2013-05-18 15:36:00,72.5,68.0,30.13,ESE,117,0.0,0.0,85,0.00,,,0.16,weatherlink.com 1.10,2013-05-18 19:36:00,
2013-05-18 15:51:00,73.0,69.0,30.13,ESE,119,0.0,0.0,87,0.00,,,0.16,weatherlink.com 1.10,2013-05-18 19:51:00,
2013-05-18 16:06:00,72.8,68.0,30.13,South,173,0.0,0.0,84,0.00,,,0.16,weatherlink.com 1.10,2013-05-18 20:06:00,
2013-05-18 16:21:00,73.0,68.0,30.13,South,173,0.0,0.0,83,0.00,,,0.16,weatherlink.com 1.10,2013-05-18 20:21:00,
2013-05-18 16:36:00,73.1,68.0,30.12,South,173,0.0,0.0,83,0.00,,,0.16,weatherlink.com 1.10,2013-05-18 20:36:00,
2013-05-18 16:51:00,73.4,68.0,30.12,SSW,212,0.0,0.0,84,0.00,,,0.16,weatherlink.com 1.10,2013-05-18 20:51:00,
2013-05-18 17:06:00,73.6,68.0,30.12,SSW,212,0.0,0.0,82,0.00,,,0.16,weatherlink.com 1.10,2013-05-18 21:06:00,
2013-05-18 17:21:00,73.5,67.0,30.11,SSW,212,0.0,0.0,81,0.00,,,0.16,weatherlink.com 1.10,2013-05-18 21:21:00,
2013-05-18 17:36:00,73.1,68.0,30.11,SSW,212,0.0,0.0,83,0.00,,,0.16,weatherlink.com 1.10,2013-05-18 21:36:00,
2013-05-18 17:51:00,72.8,68.0,30.11,North,355,0.0,0.0,84,0.00,,,0.16,weatherlink.com 1.10,2013-05-18 21:51:00,
2013-05-18 18:06:00,72.9,68.0,30.11,North,355,0.0,0.0,85,0.00,,,0.16,weatherlink.com 1.10,2013-05-18 22:06:00,
2013-05-18 18:21:00,72.7,68.0,30.12,North,355,0.0,0.0,84,0.00,,,0.16,weatherlink.com 1.10,2013-05-18 22:21:00,
2013-05-18 18:36:00,72.7,68.0,30.12,North,355,0.0,0.0,85,0.00,,,0.16,weatherlink.com 1.10,2013-05-18 22:36:00,
2013-05-18 18:51:00,72.4,67.0,30.11,North,360,0.0,0.0,84,0.00,,,0.16,weatherlink.com 1.10,2013-05-18 22:51:00,
2013-05-18 19:06:00,72.4,67.0,30.12,North,355,0.0,0.0,84,0.00,,,0.16,weatherlink.com 1.10,2013-05-18 23:06:00,
2013-05-18 19:21:00,72.1,67.0,30.12,North,355,0.0,0.0,84,0.00,,,0.16,weatherlink.com 1.10,2013-05-18 23:21:00,
2013-05-18 19:36:00,71.9,67.0,30.13,North,360,0.0,0.0,85,0.00,,,0.16,weatherlink.com 1.10,2013-05-18 23:36:00,
2013-05-18 19:51:00,71.5,67.0,30.14,North,355,0.0,0.0,85,0.00,,,0.16,weatherlink.com 1.10,2013-05-18 23:51:00,
2013-05-18 20:06:00,71.0,66.0,30.14,North,355,0.0,0.0,85,0.00,,,0.16,weatherlink.com 1.10,2013-05-19 00:06:00,
2013-05-18 20:21:00,70.6,66.0,30.14,North,355,0.0,0.0,86,0.01,,,0.17,weatherlink.com 1.10,2013-05-19 00:21:00,
2013-05-18 20:36:00,70.3,66.0,30.14,North,360,0.0,0.0,86,0.01,,,0.17,weatherlink.com 1.10,2013-05-19 00:36:00,
2013-05-18 20:51:00,69.9,66.0,30.14,North,355,0.0,0.0,87,0.01,,,0.17,weatherlink.com 1.10,2013-05-19 00:51:00,
2013-05-18 21:06:00,69.7,66.0,30.14,North,360,0.0,0.0,87,0.01,,,0.17,weatherlink.com 1.10,2013-05-19 01:06:00,
2013-05-18 21:21:00,69.5,66.0,30.15,North,355,0.0,0.0,87,0.00,,,0.17,weatherlink.com 1.10,2013-05-19 01:21:00,
2013-05-18 21:36:00,69.4,65.0,30.16,North,360,0.0,0.0,87,0.00,,,0.17,weatherlink.com 1.10,2013-05-19 01:36:00,
2013-05-18 21:51:00,69.2,65.0,30.16,North,355,0.0,0.0,87,0.00,,,0.17,weatherlink.com 1.10,2013-05-19 01:51:00,
2013-05-18 22:06:00,68.2,63.0,30.17,WNW,294,0.0,0.0,84,0.00,,,0.17,weatherlink.com 1.10,2013-05-19 02:06:00,
2013-05-18 22:21:00,66.6,61.0,30.19,WNW,294,0.0,0.0,83,0.03,,,0.20,weatherlink.com 1.10,2013-05-19 02:21:00,
2013-05-18 22:36:00,65.5,61.0,30.18,WNW,294,0.0,0.0,85,0.16,,,0.33,weatherlink.com 1.10,2013-05-19 02:36:00,
2013-05-18 22:51:00,64.9,61.0,30.17,WNW,294,0.0,0.0,87,0.21,,,0.38,weatherlink.com 1.10,2013-05-19 02:51:00,
2013-05-18 23:06:00,64.7,61.0,30.16,North,360,0.0,0.0,88,0.21,,,0.38,weatherlink.com 1.10,2013-05-19 03:06:00,
2013-05-18 23:21:00,64.6,61.0,30.16,North,360,0.0,0.0,88,0.19,,,0.40,weatherlink.com 1.10,2013-05-19 03:21:00,
2013-05-18 23:36:00,64.6,61.0,30.16,North,360,0.0,0.0,88,0.08,,,0.41,weatherlink.com 1.10,2013-05-19 03:36:00,
2013-05-18 23:51:00,64.5,61.0,30.16,WNW,294,0.0,0.0,88,0.05,,,0.43,weatherlink.com 1.10,2013-05-19 03:51:00,